Location: Cicognara
(44.9500°N, 10.4667°E)
Time: 13:25:36
(UTC+00:00)

USA 306 - Pass Details

Date: 20 June 2021
Orbit: 566 x 573 km, 54.0° (Epoch: 16 July)

Event Time Altitude Azimuth Distance (km) Brightness Sun altitude
Exits shadow 23:55:49 28° 115° (ESE) 1,092 4.1 -21.1°
Drops below altitude 10° 23:58:50 10° 72° (ENE) 1,872 5.8 -21.0°
Sets 00:01:17 0° 62° (ENE) 2,772 7.0 -21.0°
